Weather History for Troy, MI

Change the Weather History Date:

Friday, July 5, 2013

  Actual Average (KDET) Record (KDET)
Temperature  
Mean Temperature 76 °F -  
Max Temperature 83 °F 82 °F 95 °F (1977)
Min Temperature 70 °F 63 °F 35 °F (1999)
Cooling Degree Days 12    
Growing Degree Days 26 (Base 50)    
Moisture  
Dew Point 65 °F    
Average Humidity 72    
Maximum Humidity 96    
Minimum Humidity 43    
Precipitation  
Precipitation 0.00 in - - ()
Sea Level Pressure  
Sea Level Pressure 30.12 in    
Wind  
Wind Speed 2 mph (South)    
Max Wind Speed 10 mph    
Max Gust Speed 16 mph    
Visibility 7 miles    
Events Rain    
Averages and records for this station are not official NWS values.
T = Trace of Precipitation, MM = Missing Value Source: NWS Daily Summary

Daily Weather History Graph

Daily Weather History Graph

Search for Another Location

Airport:

Trip Planner

Search our weather history database for the weather conditions in past years. The results will help you decide how hot, cold, wet, or windy it might be!

Date:

Astronomy

Jul. 05, 2013 Rise Set
Actual Time 6:01 AM EDT 9:12 PM EDT
Civil Twilight 5:26 AM EDT 9:47 PM EDT
Nautical Twilight 4:42 AM EDT 10:31 PM EDT
Astronomical Twilight 3:48 AM EDT 11:25 PM EDT
Moon 4:01 AM EDT (7/5) 7:05 PM EDT (7/5)
Length of Visible Light 16h 20m
Length of Day
15h 11m
Waning Crescent, 6% of the Moon is Illuminated
Jul 5
Waning Crescent
Jul 8
New
Jul 15
First Quarter
Jul 22
Full
Jul 29
Last Quarter

Hourly Weather History & Observations

Time (EDT) Temp. Heat Index Dew Point Humidity Pressure Visibility Wind Dir Wind Speed Gust Speed Precip Events Conditions
12:15 AM 73.4 °F - 68.2 °F 84% 30.14 in 4.0 mi SW 4.6 mph - N/A   Haze
12:34 AM 73.0 °F - 68.4 °F 85% 30.14 in 4.0 mi South 5.8 mph - N/A   Haze
12:55 AM 72.9 °F - 68.5 °F 86% 30.15 in 3.0 mi SSW 3.5 mph - N/A   Overcast
1:15 AM 72.9 °F - 68.7 °F 87% 30.14 in 3.0 mi South 3.5 mph - N/A   Overcast
1:35 AM 72.9 °F - 68.9 °F 87% 30.13 in 4.0 mi Calm Calm - N/A   Overcast
1:55 AM 72.7 °F - 68.7 °F 87% 30.13 in 3.0 mi Calm Calm - N/A   Overcast
2:15 AM 72.7 °F - 68.9 °F 88% 30.13 in 4.0 mi South 4.6 mph - N/A   Overcast
2:35 AM 72.5 °F - 68.9 °F 88% 30.12 in 3.0 mi South 4.6 mph - N/A   Overcast
2:55 AM 72.5 °F - 69.1 °F 89% 30.13 in 4.0 mi South 3.5 mph - N/A   Overcast
3:14 AM 72.5 °F - 69.1 °F 89% 30.13 in 5.0 mi SSW 3.5 mph - N/A   Overcast
3:35 AM 72.5 °F - 69.3 °F 90% 30.13 in 5.0 mi SW 3.5 mph - N/A   Overcast
3:55 AM 72.0 °F - 69.3 °F 91% 30.11 in 5.0 mi Calm Calm - N/A   Overcast
4:14 AM 71.8 °F - 69.3 °F 92% 30.11 in 5.0 mi Calm Calm - N/A   Overcast
4:35 AM 71.8 °F - 69.6 °F 93% 30.11 in 4.0 mi Calm Calm - N/A   Overcast
4:54 AM 71.4 °F - 69.4 °F 93% 30.11 in 4.0 mi Calm Calm - N/A   Light Drizzle
5:15 AM 71.1 °F - 69.6 °F 95% 30.11 in 4.0 mi Calm Calm - N/A   Overcast
5:35 AM 71.2 °F - 69.6 °F 95% 30.11 in 4.0 mi Calm Calm - N/A   Overcast
5:54 AM 71.2 °F - 69.4 °F 94% 30.11 in 4.0 mi Calm Calm - N/A   Overcast
6:15 AM 71.1 °F - 69.8 °F 96% 30.12 in 3.0 mi Calm Calm - N/A Rain Light Rain
6:35 AM 70.7 °F - 69.6 °F 96% 30.12 in 2.0 mi Calm Calm - N/A   Light Drizzle
6:54 AM 71.2 °F - 69.6 °F 95% 30.13 in 3.0 mi Calm Calm - N/A   Overcast
7:15 AM 71.4 °F - 69.4 °F 93% 30.12 in 3.0 mi Calm Calm - N/A   Overcast
7:35 AM 71.6 °F - 69.8 °F 94% 30.12 in 3.0 mi Calm Calm - N/A Rain Light Rain
7:55 AM 71.6 °F - 69.6 °F 93% 30.12 in 3.0 mi Calm Calm - N/A   Overcast
8:15 AM 71.6 °F - 69.3 °F 92% 30.12 in 4.0 mi Calm Calm - N/A   Mostly Cloudy
8:35 AM 71.6 °F - 69.4 °F 93% 30.13 in 4.0 mi ESE 3.5 mph - N/A   Overcast
8:55 AM 71.6 °F - 68.0 °F 88% 30.13 in 7.0 mi Calm Calm - N/A   Overcast
9:15 AM 71.6 °F - 68.9 °F 91% 30.13 in 4.0 mi Calm Calm - N/A   Overcast
9:34 AM 71.8 °F - 69.1 °F 91% 30.13 in 3.0 mi Calm Calm - N/A   Overcast
9:55 AM 72.1 °F - 69.1 °F 90% 30.13 in 4.0 mi Calm Calm - N/A   Overcast
10:15 AM 72.9 °F - 68.9 °F 87% 30.14 in 4.0 mi Calm Calm - N/A   Overcast
10:34 AM 73.4 °F - 68.7 °F 85% 30.15 in 5.0 mi Calm Calm - N/A   Haze
10:55 AM 73.6 °F - 68.4 °F 84% 30.15 in 5.0 mi Calm Calm - N/A   Haze
11:15 AM 74.3 °F - 68.5 °F 82% 30.15 in 5.0 mi Calm Calm - N/A   Haze
11:35 AM 74.8 °F - 67.8 °F 79% 30.15 in 7.0 mi Calm Calm - N/A   Mostly Cloudy
11:55 AM 76.1 °F - 67.8 °F 75% 30.15 in 7.0 mi Calm Calm - N/A   Mostly Cloudy
12:15 PM 76.3 °F - 66.4 °F 71% 30.15 in 7.0 mi Calm Calm - N/A   Mostly Cloudy
12:35 PM 77.5 °F - 65.3 °F 66% 30.15 in 7.0 mi Calm Calm - N/A   Overcast
12:55 PM 77.9 °F - 64.8 °F 64% 30.15 in 7.0 mi Calm Calm - N/A   Overcast
1:15 PM 79.3 °F - 62.8 °F 57% 30.15 in 7.0 mi Calm Calm - N/A   Overcast
1:35 PM 79.9 °F - 62.1 °F 54% 30.14 in 10.0 mi WNW 4.6 mph - N/A   Scattered Clouds
1:55 PM 81.0 °F 81.8 °F 61.3 °F 51% 30.14 in 10.0 mi Calm Calm - N/A   Mostly Cloudy
2:14 PM 81.5 °F 81.8 °F 59.7 °F 47% 30.14 in 10.0 mi West 3.5 mph - N/A   Mostly Cloudy
2:35 PM 80.6 °F 81.7 °F 62.1 °F 53% 30.13 in 10.0 mi ESE 4.6 mph - N/A   Scattered Clouds
2:55 PM 81.0 °F 81.8 °F 61.2 °F 51% 30.13 in 10.0 mi Calm Calm - N/A   Clear
3:14 PM 81.9 °F 82.5 °F 61.2 °F 49% 30.13 in 10.0 mi Calm Calm - N/A   Clear
3:35 PM 81.9 °F 82.5 °F 60.8 °F 49% 30.12 in 10.0 mi Calm Calm - N/A   Scattered Clouds
3:55 PM 82.0 °F 82.4 °F 59.7 °F 47% 30.12 in 10.0 mi Calm Calm - N/A   Mostly Cloudy
4:15 PM 81.0 °F 81.6 °F 59.9 °F 49% 30.12 in 10.0 mi Calm Calm - N/A   Scattered Clouds
4:35 PM 82.4 °F 82.3 °F 58.5 °F 44% 30.11 in 10.0 mi ESE 6.9 mph - N/A   Mostly Cloudy
4:55 PM 82.9 °F 83.0 °F 59.4 °F 45% 30.10 in 10.0 mi Calm Calm - N/A   Mostly Cloudy
5:15 PM 83.8 °F 83.6 °F 59.2 °F 43% 30.10 in 10.0 mi SSW 3.5 mph - N/A   Mostly Cloudy
5:35 PM 82.9 °F 82.8 °F 58.6 °F 44% 30.09 in 10.0 mi Calm Calm - N/A   Mostly Cloudy
5:55 PM 83.7 °F 83.4 °F 58.8 °F 43% 30.09 in 10.0 mi South 3.5 mph - N/A   Mostly Cloudy
6:15 PM 83.7 °F 83.4 °F 59.2 °F 43% 30.10 in 10.0 mi SW 5.8 mph - N/A   Mostly Cloudy
6:35 PM 82.0 °F 82.7 °F 61.0 °F 49% 30.09 in 10.0 mi South 5.8 mph - N/A   Overcast
6:54 PM 82.2 °F 82.6 °F 60.3 °F 47% 30.09 in 10.0 mi SW 5.8 mph - N/A   Mostly Cloudy
7:15 PM 82.2 °F 82.6 °F 60.3 °F 47% 30.10 in 10.0 mi South 6.9 mph - N/A   Clear
7:35 PM 80.4 °F 82.1 °F 64.2 °F 58% 30.09 in 10.0 mi SSE 6.9 mph - N/A   Clear
7:54 PM 79.7 °F - 64.6 °F 60% 30.09 in 10.0 mi South 8.1 mph 16.1 mph N/A   Clear
8:15 PM 78.6 °F - 63.5 °F 60% 30.10 in 10.0 mi South 8.1 mph - N/A   Clear
8:35 PM 78.1 °F - 63.0 °F 60% 30.10 in 10.0 mi South 9.2 mph - N/A   Clear
8:55 PM 77.5 °F - 62.2 °F 59% 30.11 in 10.0 mi South 10.4 mph - N/A   Clear
9:15 PM 77.0 °F - 62.1 °F 60% 30.11 in 10.0 mi South 6.9 mph - N/A   Clear
9:35 PM 75.7 °F - 62.6 °F 64% 30.12 in 10.0 mi SSE 4.6 mph - N/A   Clear
9:55 PM 75.0 °F - 62.1 °F 64% 30.13 in 10.0 mi South 4.6 mph - N/A   Clear
10:15 PM 75.0 °F - 62.1 °F 64% 30.13 in 10.0 mi Calm Calm - N/A   Clear
10:35 PM 75.2 °F - 62.1 °F 64% 30.13 in 10.0 mi Calm Calm - N/A   Clear
10:55 PM 75.0 °F - 62.6 °F 65% 30.13 in 10.0 mi Calm Calm - N/A   Clear
11:15 PM 74.3 °F - 62.8 °F 67% 30.13 in 10.0 mi Calm Calm - N/A   Clear
11:35 PM 73.6 °F - 62.8 °F 69% 30.14 in 10.0 mi Calm Calm - N/A   Clear
11:55 PM 73.9 °F - 63.5 °F 70% 30.14 in 10.0 mi Calm Calm - N/A   Clear